• Join FlightAware (Why Join?)
  • Login
  • US Flag 
12:02AM EST


 

Airport Tracker/Info


-or-


 

Live Flight TrackerFlight Track Log ✈ SWA378 ✈ 31-May-2013 ✈ KATL - KORF

Flight Track Log - Related Links

Times and Time Zones

All times are in EDT time to prevent confusion due to time zone crossing. See the SWA378 flight status page for this flight to view local times or setup timezone preferences in your user account.

Time Position Orientation Groundspeed Altitude Reporting Facility
EDT Latitude Longitude Course Direction KTS MPH feet Rate Location/Type
06:18PM 33.6353 -84.3581 92° East 445 512 3,500  Level Atlanta Center
06:19PM 33.6333 -84.2783 92° East 355 409 6,200 3,000 Climbing Atlanta Center
06:20PM 33.6333 -84.1886 90° East 284 327 9,500 3,050 Climbing Atlanta Center
06:21PM 33.6356 -84.0761 89° East 317 365 12,300 3,050 Climbing Atlanta Center
06:22PM 33.6419 -83.9589 86° East 340 391 15,600 3,100 Climbing Atlanta Center
06:23PM 33.6500 -83.8317 86° East 367 422 18,500 2,733 Climbing Atlanta Center
06:25PM 33.6889 -83.5644 80° East 402 463 23,800 2,500 Climbing Atlanta Center
06:26PM 33.7428 -83.4392 63° Northeast 415 478 26,000 2,050 Climbing Atlanta Center
06:27PM 33.7961 -83.3039 65° Northeast 431 496 27,900 1,500 Climbing Atlanta Center
06:28PM 33.8497 -83.1683 65° Northeast 438 504 29,000 550 Climbing Atlanta Center
06:29PM 33.9050 -83.0328 64° Northeast 444 511 29,000 750 Level Atlanta Center
06:30PM 33.9561 -82.9119 63° Northeast 449 517 30,500 1,800 Climbing Atlanta Center
06:31PM 34.0069 -82.7708 66° East 449 517 32,600 1,750 Climbing Atlanta Center
06:32PM 34.0617 -82.6397 63° Northeast 439 505 34,000 700 Climbing Atlanta Center
06:33PM 34.1122 -82.5033 66° East 446 513 34,000  Level Atlanta Center
06:34PM 34.1692 -82.3717 62° Northeast 441 507 34,000  Level Atlanta Center
06:35PM 34.2214 -82.2325 66° East 441 507 34,000 600 Level Atlanta Center
06:36PM 34.2756 -82.1006 64° Northeast 441 507 35,200 1,000 Climbing Atlanta Center
06:37PM 34.3342 -81.9686 62° Northeast 441 507 36,000 400 Climbing Atlanta Center
06:38PM 34.3881 -81.8339 64° Northeast 441 507 36,000 400 Level Atlanta Center
06:39PM 34.4500 -81.6836 63° Northeast 441 507 36,800 1,200 Climbing Atlanta Center
06:40PM 34.5036 -81.5533 63° Northeast 441 507 38,400 1,100 Climbing Atlanta Center
06:41PM 34.5531 -81.4208 66° East 429 494 39,000 300 Climbing Atlanta Center
06:42PM 34.5967 -81.3161 63° Northeast 429 494 39,000  Level Atlanta Center
06:43PM 34.6519 -81.1778 64° Northeast 424 488 39,000  Level Atlanta Center
06:44PM 34.7053 -81.0422 64° Northeast 431 496 39,000 -50 Level Atlanta Center
06:45PM 34.7622 -80.9011 64° Northeast 429 494 38,900 -550 Descending Atlanta Center
06:46PM 34.8169 -80.7650 64° Northeast 429 494 37,900 -950 Descending Atlanta Center
06:47PM 34.8678 -80.6339 65° Northeast 429 494 37,000 -300 Descending Atlanta Center
06:49PM 34.9714 -80.3722 64° Northeast 449 517 37,000  Level Washington Center
06:50PM 35.0225 -80.2358 65° Northeast 443 510 37,000  Level Washington Center
06:51PM 35.0758 -80.0967 65° Northeast 438 504 37,000  Level Washington Center
06:52PM 35.1261 -79.9828 62° Northeast 431 496 37,000 -148 Level Washington Center
06:53PM 35.1769 -79.8483 65° Northeast 431 496 36,700 -595 Descending Washington Center
06:54PM 35.2297 -79.7086 65° Northeast 438 504 35,800 -966 Descending Washington Center
06:55PM 35.2825 -79.5714 65° Northeast 438 504 34,800 -1,008 Descending Washington Center
06:56PM 35.3369 -79.4342 64° Northeast 438 504 33,800 -1,041 Descending Washington Center
06:57PM 35.3958 -79.2842 64° Northeast 438 504 32,700 -1,100 Descending Washington Center
06:58PM 35.4458 -79.1486 66° East 433 498 31,600 -984 Descending Washington Center
06:59PM 35.4889 -79.0333 65° Northeast 428 493 30,700 -958 Descending Washington Center
07:00PM 35.5386 -78.9028 65° Northeast 417 480 29,700 -1,068 Descending Washington Center
07:01PM 35.5906 -78.7592 66° East 417 480 28,600 -1,033 Descending Washington Center
07:02PM 35.6417 -78.6361 63° Northeast 412 474 27,600 -1,008 Descending Washington Center
07:03PM 35.6867 -78.5072 67° East 412 474 26,600 -1,008 Descending Washington Center
07:04PM 35.7314 -78.3811 66° East 412 474 25,600 -1,041 Descending Washington Center
07:05PM 35.7758 -78.2597 66° East 402 463 24,500 -1,041 Descending Washington Center
07:06PM 35.8181 -78.1433 66° East 388 447 23,500 -756 Descending Washington Center
07:07PM 35.8600 -78.0267 66° East 371 427 23,000 -807 Descending Washington Center
07:08PM 35.9019 -77.9128 66° East 371 427 21,900 -992 Descending Washington Center
07:09PM 35.9458 -77.7986 65° Northeast 371 427 21,000 -446 Descending Washington Center
07:10PM 35.9875 -77.6867 65° Northeast 366 421 21,000  Level Washington Center
07:11PM 36.0375 -77.5775 60° Northeast 359 413 21,000  Level Washington Center
07:12PM 36.0953 -77.4789 54° Northeast 354 407 21,000  Level Washington Center
07:13PM 36.1533 -77.3694 57° Northeast 361 415 21,000  Level Washington Center
07:14PM 36.2069 -77.2678 57° Northeast 361 415 21,000 -650 Level Washington Center
07:15PM 36.2625 -77.1658 56° Northeast 366 421 19,700 -1,525 Descending Washington Center
07:16PM 36.3181 -77.0639 56° Northeast 366 421 18,000 -1,714 Descending Washington Center
07:17PM 36.3650 -76.9772 56° Northeast 339 390 16,500 -1,636 Descending Washington Center
07:18PM 36.4206 -76.8697 57° Northeast 342 394 14,700 -1,714 Descending Washington Center
07:19PM 36.4394 -76.8389 53° Northeast 333 383 13,900 -1,770 Descending Washington Center
07:19PM 36.4694 -76.7750 60° Northeast 337 388 12,900 -1,770 Descending Washington Center
07:20PM 36.4906 -76.7364 56° Northeast 325 374 12,100 -1,672 Descending Washington Center
07:20PM 36.5161 -76.6800 61° Northeast 327 376 11,200 -1,418 Descending Washington Center
07:21PM 36.5311 -76.6569 51° Northeast 319 367 10,800 -1,053 Descending Washington Center
07:21PM 36.5608 -76.5900 61° Northeast 315 362 10,200 -1,000 Descending Washington Center
07:22PM 36.5778 -76.5514 61° Northeast 294 338 9,700 -1,065 Descending Washington Center
07:22PM 36.6033 -76.5028 57° Northeast 302 348 9,100 -1,222 Descending Washington Center
07:23PM 36.6181 -76.4744 57° Northeast 288 331 8,600 -1,034 Descending Washington Center
07:23PM 36.6433 -76.4203 60° Northeast 288 331 8,100 -740 Descending Washington Center
07:24PM 36.6686 -76.3842 49° Northeast 249 287 7,700 -787 Descending Washington Center
07:24PM 36.6897 -76.3533 50° Northeast 273 314 7,300 -1,111 Descending Washington Center
07:25PM 36.7131 -76.3253 44° Northeast 249 287 6,700 -984 Descending Washington Center
07:25PM 36.7319 -76.2994 48° Northeast 248 285 6,300 -1,091 Descending Washington Center
07:26PM 36.7569 -76.2686 45° Northeast 252 290 5,700 -1,000 Descending Washington Center
07:26PM 36.7803 -76.2378 47° Northeast 243 280 5,300 -545 Descending Washington Center
07:27PM 36.8117 -76.2067 38° Northeast 239 275 5,100 -141 Descending Washington Center
07:28PM 36.8536 -76.1578 43° Northeast 227 261 5,100  Level Washington Center